Weather History for Alma, GA

Change the Weather History Date:

Saturday, November 10, 2012

  Actual Average Record
Temperature  
Mean Temperature 55 °F 61 °F  
Max Temperature 75 °F 73 °F 83 °F (1960)
Min Temperature 35 °F 50 °F 29 °F (1956)
Degree Days  
Heating Degree Days 10 5  
Month to date heating degree days 76 44  
Since 1 July heating degree days 111 94  
Cooling Degree Days 0 2  
Month to date cooling degree days 8 20  
Year to date cooling degree days 2656 2445  
Growing Degree Days 4 (Base 50)    
Moisture  
Dew Point 39 °F    
Average Humidity 61    
Maximum Humidity 100    
Minimum Humidity 22    
Precipitation  
Precipitation 0.00 in 0.08 in 0.98 in (1981)
Month to date precipitation 0.19 0.82  
Year to date precipitation 33.54 41.70  
Snow  
Snow 0.00 in 0.00 in 0.00 in ()
Month to date snowfall 0.0 0.0  
Since 1 July snowfall 0.0 0.0  
Since 1 September snowfall 0.0 0.0  
Snow Depth 0.00 in    
Sea Level Pressure  
Sea Level Pressure 30.32 in    
Wind  
Wind Speed 2 mph (ESE)    
Max Wind Speed 9 mph    
Max Gust Speed 13 mph    
Visibility 6 miles    
Events      
T = Trace of Precipitation, MM = Missing Value Source: NWS Daily Summary

Daily Weather History Graph

Daily Weather History Graph

Search for Another Location

Airport:

Trip Planner

Search our weather history database for the weather conditions in past years. The results will help you decide how hot, cold, wet, or windy it might be!

Date:

Astronomy

Nov. 10, 2012 Rise Set
Actual Time 6:53 AM EST 5:33 PM EST
Civil Twilight 6:28 AM EST 5:59 PM EST
Nautical Twilight 5:59 AM EST 6:28 PM EST
Astronomical Twilight 5:30 AM EST 6:57 PM EST
Moon 3:10 AM EST (11/10) 3:09 PM EST (11/10)
Length of Visible Light 11h 30m
Length of Day
10h 39m
Waning Crescent, 14% of the Moon is Illuminated
Nov 10
Waning Crescent
Nov 13
New
Nov 20
First Quarter
Nov 28
Full
Dec 6
Last Quarter

Hourly Weather History & Observations

Time (EST) Temp. Dew Point Humidity Pressure Visibility Wind Dir Wind Speed Gust Speed Precip Events Conditions
12:53 AM 41.0 °F 37.9 °F 89% 30.27 in 5.0 mi Calm Calm - N/A   Clear
1:53 AM 39.9 °F 37.9 °F 93% 30.28 in 4.0 mi Calm Calm - N/A   Clear
2:38 AM 37.4 °F 37.4 °F 100% 30.29 in 1.8 mi Calm Calm - N/A   Clear
2:53 AM 39.0 °F 37.0 °F 93% 30.28 in 3.0 mi Calm Calm - N/A   Clear
3:40 AM 37.4 °F 35.6 °F 93% 30.29 in 1.8 mi Calm Calm - N/A   Clear
3:53 AM 37.0 °F 36.0 °F 96% 30.29 in 1.8 mi Calm Calm - N/A   Clear
4:26 AM 37.4 °F 35.6 °F 93% 30.29 in 2.5 mi Calm Calm - N/A   Clear
4:53 AM 37.0 °F 36.0 °F 96% 30.30 in 2.0 mi Calm Calm - N/A   Clear
5:00 AM 35.6 °F 35.6 °F 100% 30.30 in 1.2 mi Calm Calm - N/A   Clear
5:22 AM 35.6 °F 35.6 °F 100% 30.30 in 2.5 mi Calm Calm - N/A   Clear
5:30 AM 35.6 °F 35.6 °F 100% 30.30 in 0.8 mi Calm Calm - N/A   Clear
5:40 AM 35.6 °F 33.8 °F 93% 30.31 in 2.0 mi Calm Calm - N/A   Clear
5:53 AM 37.0 °F 35.1 °F 93% 30.31 in 3.0 mi Calm Calm - N/A   Clear
6:08 AM 35.6 °F 35.6 °F 100% 30.31 in 1.8 mi Calm Calm - N/A   Clear
6:37 AM 35.6 °F 35.6 °F 100% 30.33 in 2.5 mi Calm Calm - N/A   Clear
6:53 AM 36.0 °F 35.1 °F 97% 30.33 in 1.8 mi Calm Calm - N/A   Clear
7:36 AM 39.2 °F 37.4 °F 93% 30.35 in 2.5 mi Calm Calm - N/A   Clear
7:50 AM 42.8 °F 39.2 °F 87% 30.35 in 3.0 mi Calm Calm - N/A   Clear
7:53 AM 42.1 °F 41.0 °F 96% 30.36 in 4.0 mi Calm Calm - N/A   Clear
8:53 AM 54.0 °F 48.0 °F 80% 30.36 in 8.0 mi Calm Calm - N/A   Clear
9:53 AM 62.1 °F 45.0 °F 53% 30.37 in 10.0 mi Calm Calm - N/A   Clear
10:53 AM 69.1 °F 42.1 °F 38% 30.37 in 10.0 mi Calm Calm - N/A   Clear
11:53 AM 71.1 °F 35.1 °F 27% 30.34 in 10.0 mi SSE 5.8 mph - N/A   Clear
12:53 PM 72.0 °F 36.0 °F 27% 30.31 in 10.0 mi Calm Calm - N/A   Clear
1:53 PM 73.9 °F 32.0 °F 21% 30.30 in 10.0 mi Variable 4.6 mph - N/A   Clear
2:53 PM 73.9 °F 35.1 °F 24% 30.29 in 10.0 mi SE 6.9 mph - N/A   Clear
3:53 PM 73.0 °F 37.9 °F 28% 30.29 in 10.0 mi Calm Calm - N/A   Clear
4:53 PM 71.1 °F 44.1 °F 38% 30.29 in 10.0 mi SE 3.5 mph - N/A   Clear
5:53 PM 61.0 °F 46.0 °F 58% 30.30 in 10.0 mi Calm Calm - N/A   Clear
6:53 PM 60.1 °F 46.0 °F 60% 30.33 in 10.0 mi ESE 4.6 mph - N/A   Clear
7:53 PM 57.9 °F 46.9 °F 67% 30.33 in 10.0 mi ESE 4.6 mph - N/A   Clear
8:53 PM 57.0 °F 46.9 °F 69% 30.34 in 10.0 mi ESE 3.5 mph - N/A   Clear
9:53 PM 54.0 °F 43.0 °F 66% 30.35 in 10.0 mi East 4.6 mph - N/A   Clear
11:53 PM 45.0 °F 42.1 °F 90% 30.35 in 10.0 mi Calm Calm - N/A   Clear